EXS84U EGCC-BIKF

Flight info

Callsign EXS84U
Flight time N/A
Altitude 36000
Route POL N601 ERGAB DCT BARKU DCT RATSU/M081F360 DCT ALDAN DCT ASRUN ASRUN2H
Aircraft B738/M-SDE2E3FGHIRWXY/LB1

Departure

Time N/A
Airport Manchester Airport (EGCC)

Arrival

Time 2026-04-30 18:45
Airport Keflavik International Airport (BIKF)
Time Latitude Longitude Altitude Speed Heading
2026-04-30 17:39 53.90650 -2.21467 20356 ft 366 kts 339°
2026-04-30 17:41 54.10201 -2.34947 24478 ft 393 kts 338°
2026-04-30 17:42 54.15295 -2.38488 25378 ft 398 kts 338°
2026-04-30 17:42 54.22814 -2.44852 26759 ft 402 kts 331°
2026-04-30 17:43 54.27717 -2.49381 27914 ft 397 kts 331°
2026-04-30 17:44 54.35026 -2.56040 29389 ft 396 kts 331°
2026-04-30 17:44 54.42273 -2.62576 30681 ft 394 kts 331°
2026-04-30 17:46 54.54310 -2.73468 32544 ft 387 kts 331°
2026-04-30 17:47 54.63795 -2.82104 33822 ft 383 kts 331°
2026-04-30 17:48 54.73209 -2.90721 34741 ft 384 kts 331°
2026-04-30 17:48 54.80383 -2.97321 34810 ft 402 kts 330°
2026-04-30 17:49 54.90498 -3.06399 35127 ft 421 kts 332°
2026-04-30 17:50 55.01202 -3.16484 35085 ft 449 kts 330°
2026-04-30 17:51 55.09566 -3.24439 35228 ft 464 kts 330°
2026-04-30 17:52 55.18241 -3.32593 35349 ft 478 kts 330°
2026-04-30 17:53 55.32972 -3.46507 36202 ft 482 kts 330°
2026-04-30 17:54 55.44897 -3.57871 36611 ft 486 kts 330°
2026-04-30 17:55 55.56636 -3.69132 37763 ft 476 kts 330°
2026-04-30 17:56 55.68250 -3.80354 38185 ft 476 kts 330°
2026-04-30 17:58 55.85458 -3.97115 38190 ft 465 kts 329°
2026-04-30 18:00 56.08113 -4.19452 38214 ft 469 kts 329°
2026-04-30 18:01 56.22446 -4.33739 38210 ft 474 kts 328°
2026-04-30 18:02 56.39809 -4.51211 38215 ft 477 kts 328°
2026-04-30 18:04 56.57084 -4.68777 38184 ft 474 kts 328°
2026-04-30 18:06 56.79899 -4.92267 38193 ft 469 kts 327°
2026-04-30 18:08 56.99714 -5.12940 38186 ft 469 kts 327°
2026-04-30 18:10 57.22417 -5.36942 38161 ft 473 kts 327°
2026-04-30 18:11 57.42321 -5.58269 38178 ft 472 kts 327°
2026-04-30 18:13 57.56445 -5.73568 38175 ft 470 kts 326°
2026-04-30 18:14 57.76347 -5.95361 38175 ft 467 kts 326°
2026-04-30 18:15 58.42982 -6.70434 38192 ft 464 kts 325°
2026-04-30 18:16 58.86987 -7.21879 38187 ft 465 kts 324°
2026-04-30 18:17 59.09087 -7.48305 38197 ft 466 kts 324°
2026-04-30 18:18 59.42209 -7.88680 38192 ft 468 kts 323°
2026-04-30 18:18 59.60576 -8.11484 38192 ft 469 kts 322°
2026-04-30 18:19 59.82657 -8.39291 38167 ft 469 kts 322°
2026-04-30 18:19 60.04469 -8.67205 38164 ft 468 kts 322°
2026-04-30 18:20 60.26318 -8.95610 38166 ft 467 kts 321°
2026-04-30 18:20 60.48078 -9.24365 38163 ft 467 kts 321°
2026-04-30 18:21 60.62043 -9.43118 38153 ft 465 kts 319°
2026-04-30 18:21 60.80279 -9.70336 38158 ft 463 kts 318°
2026-04-30 18:22 60.97452 -9.96179 38133 ft 460 kts 314°
2026-04-30 18:22 61.01542 -10.05884 38130 ft 445 kts 298°
2026-04-30 18:22 61.03208 -10.11231 38160 ft 441 kts 295°
2026-04-30 18:23 61.17116 -10.63657 38152 ft 437 kts 292°
2026-04-30 18:23 61.40538 -11.52145 38119 ft 434 kts 292°
2026-04-30 18:24 61.73773 -12.86279 38131 ft 431 kts 291°
2026-04-30 18:25 61.95214 -13.76890 38109 ft 430 kts 291°
2026-04-30 18:25 62.26187 -15.15051 38094 ft 428 kts 290°
2026-04-30 18:26 62.42528 -15.92048 38041 ft 424 kts 290°
2026-04-30 18:27 62.56795 -16.61409 38037 ft 421 kts 289°
2026-04-30 18:28 62.70690 -17.31357 38004 ft 419 kts 288°
2026-04-30 18:28 62.84151 -18.01511 37994 ft 419 kts 288°
2026-04-30 18:29 62.98181 -18.76839 37969 ft 421 kts 292°
2026-04-30 18:30 63.13021 -19.21878 37956 ft 429 kts 300°
2026-04-30 18:31 63.19895 -19.43610 37598 ft 435 kts 300°
2026-04-30 18:31 63.33706 -19.87185 32525 ft 438 kts 301°
2026-04-30 18:32 63.47380 -20.31046 25468 ft 427 kts 300°
2026-04-30 18:32 63.53933 -20.52356 22800 ft 401 kts 299°
2026-04-30 18:32 63.57659 -20.65413 21499 ft 375 kts 294°
2026-04-30 18:33 63.61341 -20.82738 19416 ft 359 kts 290°
2026-04-30 18:33 63.70392 -21.21540 14637 ft 348 kts 300°
2026-04-30 18:33 63.74848 -21.34154 12913 ft 352 kts 308°
2026-04-30 18:34 63.76614 -21.37977 12337 ft 353 kts 311°
2026-04-30 18:34 63.80176 -21.45642 11425 ft 353 kts 308°
2026-04-30 18:34 63.82532 -21.51795 11170 ft 330 kts 303°
2026-04-30 18:35 63.85169 -21.59794 10882 ft 304 kts 301°
2026-04-30 18:35 63.87650 -21.67168 10526 ft 287 kts 302°
2026-04-30 18:35 63.90081 -21.74145 10130 ft 275 kts 303°
2026-04-30 18:36 63.94631 -21.87324 9088 ft 259 kts 302°
2026-04-30 18:36 63.96819 -21.93743 8291 ft 251 kts 303°
2026-04-30 18:36 64.01012 -22.06067 7047 ft 245 kts 303°
2026-04-30 18:37 64.02578 -22.10678 6699 ft 243 kts 303°
2026-04-30 18:37 64.03623 -22.13747 6460 ft 241 kts 303°
2026-04-30 18:37 64.04634 -22.16725 6223 ft 240 kts 303°
2026-04-30 18:37 64.05659 -22.19744 5959 ft 240 kts 303°
2026-04-30 18:38 64.06676 -22.22746 5706 ft 239 kts 303°
2026-04-30 18:38 64.07691 -22.25747 5454 ft 237 kts 303°
2026-04-30 18:38 64.08692 -22.28709 5206 ft 235 kts 303°
2026-04-30 18:38 64.09737 -22.31575 4960 ft 235 kts 311°
2026-04-30 18:39 64.11011 -22.33945 4727 ft 236 kts 319°
2026-04-30 18:39 64.12348 -22.36110 4460 ft 234 kts 320°
2026-04-30 18:39 64.13663 -22.38266 4205 ft 232 kts 319°
2026-04-30 18:39 64.14949 -22.40460 3984 ft 228 kts 313°
2026-04-30 18:40 64.15724 -22.43375 3749 ft 205 kts 275°
2026-04-30 18:40 64.15674 -22.46523 3576 ft 197 kts 255°
2026-04-30 18:40 64.15271 -22.49462 3395 ft 191 kts 249°
2026-04-30 18:40 64.14818 -22.52246 3363 ft 185 kts 249°
2026-04-30 18:41 64.14363 -22.55048 3235 ft 188 kts 249°
2026-04-30 18:41 64.13844 -22.57789 3088 ft 188 kts 234°
2026-04-30 18:41 64.12793 -22.59334 2952 ft 182 kts 198°
2026-04-30 18:41 64.11565 -22.59917 2705 ft 179 kts 194°
2026-04-30 18:42 64.10348 -22.60267 2470 ft 172 kts 192°
2026-04-30 18:42 64.08095 -22.60534 2005 ft 152 kts 186°
2026-04-30 18:42 64.07033 -22.60538 1818 ft 151 kts 186°
2026-04-30 18:45 63.97836 -22.60558 178 ft 55 kts 180°
2026-04-30 18:45 63.97546 -22.60555 181 ft 23 kts 179°
2026-04-30 18:45 63.97429 -22.60668 179 ft 17 kts 241°
2026-04-30 18:46 63.97430 -22.60754 179 ft 3 kts 287°
2026-04-30 18:46 63.97437 -22.60806 179 ft 4 kts 287°
2026-04-30 18:46 63.97450 -22.60894 179 ft 8 kts 295°
2026-04-30 18:46 63.97498 -22.60951 179 ft 8 kts 358°
2026-04-30 18:47 63.97555 -22.60949 179 ft 9 kts
2026-04-30 18:47 63.97630 -22.60947 179 ft 14 kts
2026-04-30 18:47 63.97747 -22.60949 179 ft 20 kts 359°
2026-04-30 18:47 63.97896 -22.60954 179 ft 22 kts 359°
2026-04-30 18:48 63.98050 -22.60954 179 ft 22 kts
2026-04-30 18:48 63.98197 -22.60950 179 ft 21 kts
2026-04-30 18:48 63.98344 -22.60945 179 ft 20 kts
2026-04-30 18:48 63.98482 -22.60941 178 ft 20 kts 359°
2026-04-30 18:49 63.98618 -22.60949 179 ft 19 kts 358°
2026-04-30 18:49 63.98750 -22.60953 179 ft 19 kts 359°
2026-04-30 18:49 63.98878 -22.60957 179 ft 18 kts 359°
2026-04-30 18:49 63.99001 -22.60955 179 ft 17 kts
2026-04-30 18:50 63.99119 -22.60950 179 ft 15 kts
2026-04-30 18:50 63.99172 -22.61105 179 ft 14 kts 269°
2026-04-30 18:50 63.99172 -22.61325 179 ft 14 kts 270°
2026-04-30 18:50 63.99172 -22.61539 179 ft 14 kts 270°
2026-04-30 18:51 63.99173 -22.61826 179 ft 20 kts 270°
2026-04-30 18:51 63.99196 -22.61999 179 ft 10 kts 342°
2026-04-30 18:51 63.99238 -22.62106 179 ft 10 kts 292°
2026-04-30 18:51 63.99260 -22.62158 179 ft 3 kts 320°
2026-04-30 18:52 63.99280 -22.62199 179 ft 5 kts 318°
2026-04-30 18:52 63.99281 -22.62201 179 ft 0 kts 318°